FW4154 Weather Reports


Display with metric or nautical units.
time (UTC)temp
F
wind
direction
speed
MPH
gust
MPH
rain 1hr
in
rain 24hr
in
rain mn
in
humidity
%
barometer
mb
20260504050351 61 21 0.0 0.0 0.00 0.00 0.00 76 1000.2
20260504045843 62 21 0.0 0.0 0.00 0.00 0.00 76 1000.2
20260504044857 62 21 0.0 0.0 0.00 0.00 0.00 74 1000.2
20260504043900 63 19 0.0 0.0 0.00 0.00 0.00 73 1000.2
20260504042911 64 19 0.0 0.0 0.00 0.00 0.00 71 1000.2
20260504042403 64 19 0.0 0.0 0.00 0.00 0.00 72 1000.2
20260504041849 64 21 0.0 0.0 0.00 0.00 0.00 73 1000.2
20260504040851 65 5 0.0 0.0 0.00 0.00 0.00 77 1000.2
20260504035858 65 305 0.0 0.0 0.00 0.00 0.00 69 1000.2
20260504034906 66 273 0.0 0.0 0.00 0.00 0.00 68 1000.2
20260504034348 67 271 0.0 0.0 0.00 0.00 0.00 67 1000.2
20260504033406 68 270 0.0 2.0 0.00 0.00 0.00 64 1000.2
20260504032856 68 270 0.0 2.0 0.00 0.00 0.00 64 1000.2
20260504032347 69 270 0.0 1.0 0.00 0.00 0.00 62 1000.2
20260504031352 69 265 0.0 1.0 0.00 0.00 0.00 60 1000.2
20260504030406 72 265 0.0 3.0 0.00 0.00 0.00 54 1000.2
20260504025854 72 263 0.0 3.0 0.00 0.00 0.00 53 1000.2
20260504025351 73 317 0.0 5.0 0.00 0.00 0.00 52 1000.2
20260504024406 74 300 1.0 5.0 0.00 0.00 0.00 52 1000.2
20260504023859 74 306 3.0 5.0 0.00 0.00 0.00 52 1000.2
20260504022910 75 312 2.0 8.0 0.00 0.00 0.00 52 1000.2
20260504021853 75 290 3.0 7.0 0.00 0.00 0.00 51 1000.2
20260504020858 75 292 2.0 7.0 0.00 0.00 0.00 51 1000.2
20260504015904 76 305 5.0 9.0 0.00 0.00 0.00 50 1000.2
20260504015359 76 288 2.0 8.0 0.00 0.00 0.00 49 1000.2
20260504014354 76 265 4.0 10.0 0.00 0.00 0.00 49 1000.2
20260504013849 76 283 3.0 10.0 0.00 0.00 0.00 49 1000.2
20260504012906 77 282 2.0 9.0 0.00 0.00 0.00 48 1000.2
20260504012356 77 277 5.0 9.0 0.00 0.00 0.00 47 1000.2
20260504011402 77 277 6.0 12.0 0.00 0.00 0.00 47 1000.2
20260504010851 77 276 5.0 10.0 0.00 0.00 0.00 47 1000.2
20260504005909 77 283 1.0 10.0 0.00 0.00 0.00 49 1000.2
20260504005404 77 257 5.0 10.0 0.00 0.00 0.00 48 1000.2
20260504004900 77 259 4.0 11.0 0.00 0.00 0.00 48 1000.2
20260504003905 77 293 2.0 8.0 0.00 0.00 0.00 48 1000.2
20260504003359 77 275 3.0 7.0 0.00 0.00 0.00 48 1000.2
20260504002900 77 302 3.0 10.0 0.00 0.00 0.00 49 1000.2
20260504002357 77 280 5.0 10.0 0.00 0.00 0.00 50 1000.2
20260504001854 77 286 6.0 9.0 0.00 0.00 0.00 49 1000.2
20260504000850 80 278 3.0 10.0 0.00 0.00 0.00 45 1000.2
20260503235849 79 263 6.0 10.0 0.00 0.00 0.00 45 1000.2
20260503235341 79 279 6.0 10.0 0.00 0.00 0.00 46 1000.2
20260503234400 78 279 4.0 12.0 0.00 0.00 0.00 47 1000.2
20260503233400 78 284 7.0 10.0 0.00 0.00 0.00 47 1000.2
20260503232850 79 279 5.0 11.0 0.00 0.00 0.00 47 1000.2
20260503231910 78 258 5.0 12.0 0.00 0.00 0.00 47 1000.2
20260503231400 78 275 7.0 12.0 0.00 0.00 0.00 48 1000.2
20260503230408 78 278 7.0 11.0 0.00 0.00 0.00 49 1000.2
20260503224853 78 260 6.0 12.0 0.00 0.00 0.00 49 1000.2
20260503223907 77 293 5.0 10.0 0.00 0.00 0.00 50 1000.2
20260503222902 76 323 6.0 13.0 0.00 0.00 0.00 50 1000.2
20260503221903 77 300 8.0 14.0 0.00 0.00 0.00 50 1000.2
20260503220904 77 269 7.0 12.0 0.00 0.00 0.00 49 1000.2
20260503215908 77 269 6.0 13.0 0.00 0.00 0.00 48 1000.2
20260503215351 77 328 8.0 15.0 0.00 0.00 0.00 49 1000.2
20260503214356 77 300 8.0 14.0 0.00 0.00 0.00 49 1000.2
20260503213406 77 325 5.0 12.0 0.00 0.00 0.00 47 1000.2
20260503212901 78 286 7.0 11.0 0.00 0.00 0.00 48 1000.2
20260503211853 77 282 7.0 13.0 0.00 0.00 0.00 49 1000.2
20260503210908 76 293 8.0 13.0 0.00 0.00 0.00 49 1000.2
20260503205854 77 284 8.0 12.0 0.00 0.00 0.00 50 1000.2
20260503204859 76 301 8.0 13.0 0.00 0.00 0.00 50 1000.2
20260503203906 76 283 4.0 10.0 0.00 0.00 0.00 51 1000.2
20260503203355 76 271 4.0 10.0 0.00 0.00 0.00 52 1000.2
20260503202356 76 331 4.0 11.0 0.00 0.00 0.00 50 1000.2
20260503201353 75 268 5.0 10.0 0.00 0.00 0.00 52 1000.2
20260503200404 75 282 6.0 10.0 0.00 0.00 0.00 52 1000.2
20260503195848 74 328 4.0 11.0 0.00 0.00 0.00 55 1000.2
20260503194905 74 257 2.0 10.0 0.00 0.00 0.00 54 1000.2
20260503193856 74 245 4.0 9.0 0.00 0.00 0.00 55 1000.2
20260503192907 73 234 3.0 10.0 0.00 0.00 0.00 56 1000.2
20260503192404 73 312 4.0 10.0 0.00 0.00 0.00 57 1000.2
20260503191357 72 298 3.0 10.0 0.00 0.00 0.00 56 1000.2
20260503190400 72 265 6.0 11.0 0.00 0.00 0.00 58 1000.2
20260503185849 71 262 5.0 9.0 0.00 0.00 0.00 60 1000.2
20260503184908 72 313 1.0 8.0 0.00 0.00 0.00 56 1000.2
20260503183856 72 309 2.0 9.0 0.00 0.00 0.00 54 1000.2
20260503182904 72 42 6.0 10.0 0.00 0.00 0.00 52 1000.2
20260503181856 72 348 5.0 8.0 0.00 0.00 0.00 53 1000.2
20260503180859 71 256 1.0 5.0 0.00 0.00 0.00 58 1000.2
20260503175909 71 343 4.0 9.0 0.00 0.00 0.00 56 1000.2
20260503175402 71 331 3.0 9.0 0.00 0.00 0.00 57 1000.2
20260503174407 71 319 5.0 11.0 0.00 0.00 0.00 54 1000.2
20260503173407 71 295 2.0 10.0 0.00 0.00 0.00 56 1000.2
20260503172901 71 279 5.0 10.0 0.00 0.00 0.00 54 1000.2
20260503172158 67 43 2.0 8.0 0.00 0.00 0.00 65 1000.2
20260503150351 58 44 1.0 3.0 0.00 0.00 0.00 80 1000.2
20260503130900 51 9 2.0 3.0 0.00 0.00 0.00 89 1000.2
20260503110444 53 9 1.0 3.0 0.00 0.00 0.00 86 1000.2
20260503080929 55 9 0.0 2.0 0.00 0.00 0.00 83 1000.2
20260503080427 55 9 0.0 4.0 0.00 0.00 0.00 82 1000.2
20260503072924 55 17 0.0 0.0 0.00 0.00 0.00 83 1000.2
20260503072421 55 17 0.0 0.0 0.00 0.00 0.00 82 1000.2
20260503071912 55 17 0.0 0.0 0.00 0.00 0.00 82 1000.2
20260503070928 55 17 0.0 0.0 0.00 0.00 0.00 81 1000.2
20260503053933 58 279 0.0 0.0 0.00 0.00 0.00 77 1000.2
20260503053424 59 279 0.0 0.0 0.00 0.00 0.00 76 1000.2
20260503052446 59 280 0.0 0.0 0.00 0.00 0.00 75 1000.2
20260503051940 59 279 0.0 0.0 0.00 0.00 0.00 75 1000.2